Weather History for KAQW - October, 2012

Change the Weather History Date:

Wednesday, October 10, 2012

  Actual Average Record
Temperature  
Mean Temperature 52 °F -  
Max Temperature 57 °F 59 °F 78 °F (2011)
Min Temperature 46 °F 38 °F 32 °F (2010)
Degree Days  
Heating Degree Days 14    
Growing Degree Days 2 (Base 50)    
Moisture  
Dew Point 48 °F    
Average Humidity 86    
Maximum Humidity 100    
Minimum Humidity 71    
Precipitation  
Precipitation 0.15 in - - ()
Sea Level Pressure  
Sea Level Pressure 29.88 in    
Wind  
Wind Speed 7 mph (East)    
Max Wind Speed 15 mph    
Max Gust Speed 31 mph    
Visibility 6 miles    
Events Rain    
Averages and records for this station are not official NWS values.
T = Trace of Precipitation, MM = Missing Value Source: NWS Daily Summary

Daily Weather History Graph

Daily Weather History Graph

Search for Another Location

Airport or City:

Trip Planner

Search our weather history database for the weather conditions in past years. The results will help you decide how hot, cold, wet, or windy it might be!

Date:

Astronomy

Oct. 10, 2012 Rise Set
Actual Time 7:00 AM EDT 6:17 PM EDT
Civil Twilight 6:32 AM EDT 6:46 PM EDT
Nautical Twilight 5:59 AM EDT 7:18 PM EDT
Astronomical Twilight 5:26 AM EDT 7:51 PM EDT
Moon 1:27 AM EDT (10/10) 3:24 PM EDT (10/10)
Length of Visible Light 12h 13m
Length of Day
11h 17m
Waning Crescent, 27% of the Moon is Illuminated
Oct 10
Waning Crescent
Oct 15
New
Oct 21
First Quarter
Oct 29
Full
Nov 6
Last Quarter

Hourly Weather History & Observations

Time (EDT) Temp. Windchill Dew Point Humidity Pressure Visibility Wind Dir Wind Speed Gust Speed Precip Events Conditions
12:52 AM 51.1 °F - 45.0 °F 80% 30.11 in 10.0 mi East 8.1 mph - N/A   Overcast
1:52 AM 51.1 °F - 44.1 °F 77% 30.11 in 10.0 mi East 6.9 mph - N/A   Overcast
2:00 AM 51.8 °F - 42.8 °F 71% 30.10 in 10.0 mi ESE 8.1 mph - N/A   Overcast
2:52 AM 50.0 °F - 43.0 °F 77% 30.09 in 10.0 mi East 8.1 mph - N/A   Overcast
3:52 AM 50.0 °F - 41.0 °F 71% 30.06 in 10.0 mi East 12.7 mph 20.7 mph N/A   Overcast
4:52 AM 50.0 °F - 41.0 °F 71% 30.06 in 10.0 mi East 9.2 mph - N/A   Overcast
5:40 AM 50.0 °F - 42.8 °F 76% 30.04 in 10.0 mi Variable 4.6 mph - N/A   Overcast
5:52 AM 50.0 °F - 42.1 °F 74% 30.04 in 10.0 mi Variable 6.9 mph - N/A   Overcast
6:52 AM 50.0 °F - 45.0 °F 83% 30.04 in 8.0 mi Variable 5.8 mph - N/A   Overcast
7:52 AM 48.9 °F - 45.0 °F 86% 30.03 in 4.0 mi NNE 3.5 mph - 0.01 in Rain Light Rain
8:28 AM 48.2 °F - 46.4 °F 93% 30.00 in 2.5 mi Variable 5.8 mph - 0.01 in Rain Light Rain
8:35 AM 48.2 °F - 46.4 °F 93% 30.00 in 3.0 mi Variable 6.9 mph - 0.01 in Rain Light Rain
8:52 AM 48.9 °F - 46.9 °F 93% 30.00 in 4.0 mi Variable 5.8 mph - 0.01 in Rain Light Rain
9:07 AM 48.2 °F - 46.4 °F 93% 29.99 in 2.5 mi NE 6.9 mph - 0.00 in Rain Light Rain
9:29 AM 50.0 °F - 46.4 °F 87% 29.97 in 3.0 mi NE 5.8 mph - 0.01 in Rain Light Rain
9:52 AM 51.1 °F - 48.0 °F 89% 29.96 in 10.0 mi ENE 4.6 mph - 0.01 in   Overcast
10:52 AM 54.0 °F - 48.9 °F 83% 29.93 in 10.0 mi Variable 5.8 mph - 0.01 in   Overcast
11:44 AM 53.6 °F - 50.0 °F 88% 29.89 in 2.5 mi ENE 8.1 mph - 0.00 in Rain Light Rain
11:52 AM 54.0 °F - 51.1 °F 90% 29.89 in 1.8 mi Variable 6.9 mph - 0.00 in Rain Light Rain
12:02 PM 53.6 °F - 51.8 °F 94% 29.88 in 1.8 mi Variable 5.8 mph - 0.01 in Rain Light Rain
12:06 PM 53.6 °F - 51.8 °F 94% 29.88 in 2.5 mi Variable 4.6 mph - 0.01 in Rain Light Rain
12:09 PM 53.6 °F - 51.8 °F 94% 29.88 in 3.0 mi ENE 5.8 mph - 0.01 in Rain Light Rain
12:31 PM 53.6 °F - 51.8 °F 94% 29.86 in 2.0 mi East 8.1 mph 16.1 mph 0.02 in Rain Light Rain
12:41 PM 53.6 °F - 51.8 °F 94% 29.85 in 3.0 mi East 12.7 mph 19.6 mph 0.03 in Rain Light Rain
12:52 PM 54.0 °F - 51.1 °F 90% 29.85 in 4.0 mi East 12.7 mph 19.6 mph 0.03 in Rain Light Rain
1:11 PM 53.6 °F - 51.8 °F 94% 29.83 in 2.0 mi East 8.1 mph - 0.01 in Rain Light Rain
1:18 PM 53.6 °F - 51.8 °F 94% 29.82 in 1.8 mi East 8.1 mph - 0.01 in Rain Light Rain
1:49 PM 53.6 °F - 51.8 °F 94% 29.81 in 3.0 mi ESE 8.1 mph - 0.04 in Rain Light Rain
1:52 PM 55.0 °F - 52.0 °F 89% 29.82 in 4.0 mi ESE 9.2 mph - 0.04 in Rain Light Rain
2:02 PM 55.4 °F - 53.6 °F 94% 29.80 in 2.5 mi East 9.2 mph - 0.01 in Rain Light Rain
2:04 PM 55.4 °F - 53.6 °F 94% 29.80 in 3.0 mi East 6.9 mph - 0.01 in Rain Light Rain
2:26 PM 55.4 °F - 53.6 °F 94% 29.79 in 2.0 mi East 10.4 mph 17.3 mph 0.01 in Rain Light Rain
2:37 PM 55.4 °F - 55.4 °F 100% 29.78 in 3.0 mi East 9.2 mph - 0.01 in Rain Light Rain
2:44 PM 57.2 °F - 55.4 °F 94% 29.78 in 3.0 mi East 8.1 mph - 0.01 in   Overcast
2:52 PM 57.0 °F - 55.0 °F 93% 29.78 in 3.0 mi East 6.9 mph 16.1 mph 0.01 in   Overcast
3:52 PM 57.0 °F - 55.0 °F 93% 29.77 in 4.0 mi Calm Calm - 0.00 in Rain Light Rain
4:25 PM 57.2 °F - 53.6 °F 88% 29.75 in 2.5 mi Calm Calm - 0.01 in Rain Light Rain
4:33 PM 57.2 °F - 55.4 °F 94% 29.75 in 6.0 mi East 3.5 mph - 0.01 in Rain Light Rain
4:40 PM 57.2 °F - 55.4 °F 94% 29.75 in 10.0 mi Calm Calm - 0.01 in   Overcast
4:52 PM 57.0 °F - 54.0 °F 89% 29.76 in 10.0 mi Calm Calm - 0.01 in   Overcast
5:09 PM 57.2 °F - 53.6 °F 88% 29.75 in 10.0 mi West 5.8 mph - N/A   Overcast
5:24 PM 57.2 °F - 53.6 °F 88% 29.75 in 10.0 mi West 6.9 mph - N/A   Overcast
5:52 PM 57.0 °F - 52.0 °F 83% 29.76 in 10.0 mi West 5.8 mph - N/A   Mostly Cloudy
6:15 PM 55.4 °F - 51.8 °F 88% 29.76 in 10.0 mi West 8.1 mph - N/A   Mostly Cloudy
6:52 PM 52.0 °F - 48.9 °F 89% 29.77 in 10.0 mi West 4.6 mph - N/A   Partly Cloudy
7:52 PM 52.0 °F - 50.0 °F 93% 29.78 in 10.0 mi WNW 3.5 mph - N/A   Overcast
8:21 PM 51.8 °F - 44.6 °F 76% 29.82 in 10.0 mi WNW 15.0 mph 31.1 mph 0.01 in   Overcast
8:25 PM 50.0 °F - 42.8 °F 76% 29.83 in 10.0 mi WNW 8.1 mph 31.1 mph 0.01 in   Overcast
8:52 PM 50.0 °F - 41.0 °F 71% 29.85 in 10.0 mi West 9.2 mph - 0.01 in   Overcast
9:52 PM 46.9 °F - 42.1 °F 83% 29.87 in 10.0 mi WSW 6.9 mph - 0.00 in Rain Light Rain
10:52 PM 46.9 °F - 39.9 °F 77% 29.88 in 10.0 mi West 9.2 mph - 0.01 in   Overcast
11:19 PM 46.4 °F 42.4 °F 39.2 °F 76% 29.87 in 10.0 mi West 8.1 mph - N/A   Overcast
11:41 PM 46.4 °F 42.4 °F 37.4 °F 71% 29.87 in 10.0 mi West 8.1 mph 17.3 mph N/A   Mostly Cloudy
11:52 PM 46.0 °F 41.4 °F 37.9 °F 73% 29.88 in 10.0 mi WSW 9.2 mph - N/A   Mostly Cloudy